sat.trackr.live / text

‹ back to catalog

STARLINK-5322

NORAD 55303 · 2023-010AL

PAYLOAD ACTIVE UNKNOWN

§ Identity

Operator
Country
US
Launch date
2023-01-19
Launch site
AFWTR
Launch vehicle
Mass (kg)
RCS (m²)

Purposes: comms

External: N2YO · Heavens-Above · Gunter

§ Orbital elements

Epoch: 2026-09-20T23:33:33.140448Z

Period
96.09 min
Inclination
69.9983°
Eccentricity
0.0003297
Mean motion
14.98544253 rev/d
Perigee alt
569.1 km
Apogee alt
573.7 km
Semi-major
6,949.5 km
B*
2.1639e-3
RAAN
271.8541°
Arg perigee
277.9317°
Mean anomaly
82.1468°
Rev number
20,203

§ Raw data

STARLINK-53221 55303U 23010AL  26263.98163357  .00025966  00000+0  21639-2 0  99932 55303  69.9983 271.8541 0003297 277.9317  82.1468 14.98544253202038

JSON: /api/v1/satellites/55303 · /tle

For live sub-satellite position, see the globe view (requires WebGL).

§ Visibility from observer

Set your observer location to see the next 7 days of passes ≥ 10°. The values pass through the URL so the page stays shareable.

No JS? Fill the form by hand. The geolocation button needs JavaScript.